Location: G�yn�k
(36.6721°N, 30.5542°E)
Time: 08:53:42
(UTC+00:00)

STARLINK-44 - Pass Details

Date: 07 June 2020
Orbit: 434 x 436 km, 53.0° (Epoch: 06 July)

Event Time Altitude Azimuth Distance (km) Brightness Sun altitude
Exits shadow 23:12:14 - 81° (E) 1,706 6.5 -27.9°
Enters shadow 00:09:52 -67° 229° (SW) 12,186 10.4 -22.8°
Maximum altitude 00:46:17 44° 321° (NW) 613 3.9 -18.4°
